Regional Weather Roundup
Issued by NWS

Home | Current Version | Previous Version | Text Only | Print | Product List | Glossary Off
Versions: 1 2 3 4 5 6 7 8 9 10 11 12 13 14 15 16 17 18 19 20 21 22 23 24 25 26 27 28 29 30 31 32 33 34 35 36 37 38 39 40 41 42 43 44 45 46 47 48 49 50

971
ASUS44 KJAN 230810
RWRMS

MISSISSIPPI HOURLY WEATHER ROUNDUP
NATIONAL WEATHER SERVICE JACKSON MS
300 AM CDT SAT AUG 23 2014

NOTE: "FAIR: INDICATES FEW OR NO CLOUDS BELOW 12,000 FEET WITH NO
SIGNIFICANT WEATHER AND/OR OBSTRUCTIONS TO VISIBILITY.

MSZ001>002-007>008-010>013-018>021-025>028-034>036-230900-
NORTHWEST MISSISSIPPI

CITY           SKY/WX    TMP DP  RH WIND       PRES   REMARKS
CLARKSDALE     FAIR      75  73  94 CALM      30.00S
CLEVELAND      FAIR      74  73  97 S6        30.00S
GREENWOOD      CLEAR     73  71  93 S5        30.00S
GREENVILLE     CLEAR     72  70  93 CALM      30.00R
GRENADA        FAIR      70  70 100 CALM      30.01R
OLIVE BRANCH   CLEAR     73  73 100 S5        30.00S
OXFORD         FAIR      72  70  94 CALM      30.02S
TUNICA           N/A     73  72  94 CALM      30.00R
$$

MSZ003>006-009-014>017-022>024-029>033-037>039-230900-
NORTHEAST MISSISSIPPI

CITY           SKY/WX    TMP DP  RH WIND       PRES   REMARKS
BELMONT        FAIR      73  72  98 CALM      30.02R
COLUMBUS AFB   CLEAR     73  72  96 CALM      30.00S
CORINTH        FAIR      73  72  94 CALM      30.00S
GOLDN TRIANGLE CLEAR     73  66  78 CALM      30.01R
STARKVILLE     FAIR      70  68  94 CALM      30.01S
TUPELO         CLEAR     75  71  87 SW3       30.00S
$$

MSZ040-058-230900-
CENTRAL MISSISSIPPI

CITY           SKY/WX    TMP DP  RH WIND       PRES   REMARKS
JACKSON INTL   CLEAR     74  72  93 CALM      30.01S
JACKSON HAWKNS CLEAR     76  71  85 CALM      30.02S
MERIDIAN KEY   CLEAR     73  70  90 CALM      30.01S
MERIDIAN NAS     N/A     75  72  90 CALM      30.01S
RAYMOND        FAIR      72  66  83 CALM      30.01F HAZE
VICKSBURG      CLEAR     71  70  96 CALM      30.00F
$$

MSZ059>079-230900-
SOUTH MISSISSIPPI

CITY           SKY/WX    TMP DP  RH WIND       PRES   REMARKS
BROOKHAVEN     FAIR      73  73 100 CALM      30.04R FOG
COLUMBIA       FAIR      75  73  94 MISG      29.99F
HATTIESBURG    FOG       77  74  90 CALM      30.01S VSB 1
MCCOMB         CLEAR     76  73  91 CALM      30.01F
NATCHEZ        CLEAR     75  72  88 CALM      30.02S
PINE BELT      CLEAR     75  72  88 CALM      30.02S
$$

MSZ080>082-230900-
COASTAL MISSISSIPPI

CITY           SKY/WX    TMP DP  RH WIND       PRES   REMARKS
BILOXI         CLEAR     82  77  83 CALM      29.99S HX  91
PASCAGOULA     CLEAR     75  74  96 CALM      29.98F FOG
GULFPORT       CLEAR     80  76  87 W3        29.98F
$$



USA.gov is the U.S. government's official web portal to all federal, state and local government web resources and services.